Location: ?ejeti?ky
(50.4060°N, 14.9016°E)
Time: 22:25:25
(UTC+00:00)

STARLINK-1364 - Pass Details

Date: 10 October 2020
Orbit: 548 x 551 km, 53.0° (Epoch: 23 October)

Event Time Altitude Azimuth Distance (km) Brightness Sun altitude
Exits shadow 04:16:27 13° 254° (WSW) 1,616 5.4 -10.2°
Maximum altitude 04:18:09 17° 226° (SW) 1,451 5.3 -9.9°
Drops below altitude 10° 04:20:47 10° 187° (S) 1,819 6.2 -9.5°
Sets 04:23:39 0° 166° (SSE) 2,709 7.3 -9.0°
